User: anonymous   Login
Location: Sungai Anya
(2.6167°N, 114.0500°E)
Time: 12:45:50
(UTC+00:00)
Language:

Hubble Space Telescope - Orbit

View from above orbital plane
View from above orbital plane
View from above satellite
View from above satellite

Ground track
Ground track

The orbit data is extracted from the following two-line orbital elements,

1 20580U 90037B   22021.80480639  .00001401  00000-0  73261-4 0  9998
2 20580  28.4711  60.0269 0002348 253.1051 274.4471 15.09959465544024
Epoch (UTC): 21 January 2022 19:18:55
Eccentricity: 0.0002348
inclination: 28.4711°
perigee height: 535 km
apogee height: 538 km
right ascension of ascending node: 60.0269°
argument of perigee: 253.1051°
revolutions per day: 15.09959465
mean anomaly at epoch: 274.4471°
orbit number at epoch: 54402

The dashed part of the orbit path shows where the satellite is in the earth's shadow,  

DLR